Weather History for KDXR - November, 2014

Change the Weather History Date:

Tuesday, November 18, 2014

  Actual Average Record
Temperature  
Mean Temperature 32 °F -  
Max Temperature 43 °F 49 °F 70 °F (1953)
Min Temperature 21 °F 30 °F 16 °F (1959)
Degree Days  
Heating Degree Days 33    
Moisture  
Dew Point 10 °F    
Average Humidity 44    
Maximum Humidity 63    
Minimum Humidity 29    
Precipitation  
Precipitation 0.00 in - - ()
Sea Level Pressure  
Sea Level Pressure 29.82 in    
Wind  
Wind Speed 11 mph (West)    
Max Wind Speed 21 mph    
Max Gust Speed 30 mph    
Visibility 10 miles    
Events      
Averages and records for this station are not official NWS values.
T = Trace of Precipitation, MM = Missing Value Source: NWS Daily Summary

Daily Weather History Graph

Daily Weather History Graph

Search for Another Location

Airport or City:

Trip Planner

Search our weather history database for the weather conditions in past years. The results will help you decide how hot, cold, wet, or windy it might be!

Date:

Astronomy

Nov. 18, 2014 Rise Set
Actual Time 6:45 AM EST 4:31 PM EST
Civil Twilight 6:15 AM EST 5:01 PM EST
Nautical Twilight 5:42 AM EST 5:35 PM EST
Astronomical Twilight 5:09 AM EST 6:08 PM EST
Moon 2:38 AM EST (11/18) 2:27 PM EST (11/18)
Length of Visible Light 10h 45m
Length of Day
9h 46m
Waning Crescent, 15% of the Moon is Illuminated
Nov 18
Waning Crescent
Nov 22
New
Nov 29
First Quarter
Dec 6
Full
Dec 14
Last Quarter

Hourly Weather History & Observations

Time (EST) Temp. Windchill Dew Point Humidity Pressure Visibility Wind Dir Wind Speed Gust Speed Precip Events Conditions
12:53 AM 43.0 °F 37.7 °F 28.9 °F 58% 29.56 in 10.0 mi WNW 9.2 mph - N/A   Overcast
1:53 AM 39.9 °F 33.9 °F 27.0 °F 60% 29.57 in 10.0 mi West 9.2 mph - N/A   Clear
2:53 AM 39.9 °F 35.1 °F 28.0 °F 63% 29.60 in 10.0 mi WSW 6.9 mph - N/A   Mostly Cloudy
3:53 AM 39.0 °F 31.0 °F 27.0 °F 62% 29.62 in 10.0 mi West 13.8 mph 20.7 mph N/A   Overcast
4:53 AM 36.0 °F 29.0 °F 23.0 °F 59% 29.64 in 10.0 mi West 9.2 mph 19.6 mph N/A   Mostly Cloudy
5:53 AM 34.0 °F 25.5 °F 21.0 °F 59% 29.67 in 10.0 mi West 11.5 mph 18.4 mph N/A   Overcast
6:53 AM 30.9 °F 22.2 °F 17.1 °F 57% 29.71 in 10.0 mi West 10.4 mph 23.0 mph N/A   Partly Cloudy
7:53 AM 28.9 °F 19.2 °F 14.0 °F 54% 29.75 in 10.0 mi WSW 11.5 mph 23.0 mph N/A   Clear
8:53 AM 28.0 °F 16.1 °F 12.0 °F 51% 29.78 in 10.0 mi West 16.1 mph 26.5 mph N/A   Clear
9:53 AM 28.9 °F 15.8 °F 7.0 °F 40% 29.80 in 10.0 mi West 20.7 mph 28.8 mph N/A   Clear
10:53 AM 28.9 °F 18.2 °F 6.1 °F 38% 29.81 in 10.0 mi West 13.8 mph 29.9 mph N/A   Clear
11:53 AM 30.9 °F 21.7 °F 6.1 °F 35% 29.81 in 10.0 mi West 11.5 mph 25.3 mph N/A   Clear
12:53 PM 30.9 °F 20.7 °F 3.9 °F 32% 29.81 in 10.0 mi WNW 13.8 mph 23.0 mph N/A   Clear
1:53 PM 30.0 °F 19.1 °F 1.9 °F 30% 29.81 in 10.0 mi West 15.0 mph 23.0 mph N/A   Clear
2:53 PM 30.0 °F 19.1 °F 1.0 °F 29% 29.84 in 10.0 mi West 15.0 mph 25.3 mph N/A   Clear
3:53 PM 28.9 °F 18.6 °F -0.0 °F 29% 29.87 in 10.0 mi West 12.7 mph 21.9 mph N/A   Clear
4:53 PM 27.0 °F 20.5 °F -0.9 °F 30% 29.89 in 10.0 mi West 5.8 mph - N/A   Clear
5:53 PM 26.1 °F 16.8 °F 1.9 °F 35% 29.93 in 10.0 mi West 9.2 mph - N/A   Clear
6:53 PM 25.0 °F 14.8 °F 1.9 °F 37% 29.96 in 10.0 mi WSW 10.4 mph - N/A   Clear
7:53 PM 24.1 °F 13.7 °F 1.0 °F 37% 29.99 in 10.0 mi West 10.4 mph 18.4 mph N/A   Clear
8:53 PM 23.0 °F 12.4 °F 1.0 °F 39% 30.01 in 10.0 mi WSW 10.4 mph - N/A   Clear
9:53 PM 21.9 °F 10.4 °F -0.0 °F 38% 30.04 in 10.0 mi West 11.5 mph 19.6 mph N/A   Clear
10:53 PM 21.0 °F 8.1 °F 1.0 °F 42% 30.05 in 10.0 mi West 13.8 mph 21.9 mph N/A   Clear
11:53 PM 21.0 °F 8.6 °F 1.9 °F 44% 30.06 in 10.0 mi West 12.7 mph 24.2 mph N/A   Clear